MOLNIYA 1-81 (21426 NORAD) Tracking and Keplerian Element Data

This shows tracking and keplerian element data for the satellite.

Feedback or suggestion? Click here.




ElementValue
Catalog21426
NameMOLNIYA 1-81
Epoch Orbit24644
Epoch Day34.59021015
Epoch Year2025
RAAN230.9079
Inclination63.478
Eccentricity0.6778303
Argument of Perigee261.7564
Mean Anonmoly22.4128
Mean Motion2.00614154
Decay Rate2.88E-06
L11 21426U 91043A 25034.59021015 .00000288 00000+0 00000+0 0 9995
L22 21426 63.4780 230.9079 6778303 261.7564 22.4128 2.00614154246442



Live tracking and technical data element details for MOLNIYA 1-81 (NORAD 21426). MOLNIYA 1-81 can be tracked NOW for your location showing map with azimuth and elevation plus other details from your city location.







IsCatalogInMostPopularTable: catalog: 21426, numindb: 321
Update: records affected: 1



GetName: 21426 MOLNIYA 1-81

Hit Count: updated at: Thu, 22 May 2025 03:50:34 GMT